Change the Weather History Date:

Saturday, August 9, 2014

  Actual Average (KBFD) Record (KBFD)
Temperature  
Mean Temperature 63 °F 65 °F  
Max Temperature 73 °F 77 °F 91 °F (2001)
Min Temperature 53 °F 53 °F 39 °F (1989)
Degree Days  
Heating Degree Days 2 1  
Month to date heating degree days 1  
Since 1 June heating degree days 210  
Since 1 July heating degree days 65  
Cooling Degree Days 0 2  
Month to date cooling degree days 18  
Year to date cooling degree days 142  
Since 1 June cooling degree days 132  
Growing Degree Days 13 (Base 50)    
Moisture  
Dew Point 57 °F    
Average Humidity 83    
Maximum Humidity 100    
Minimum Humidity 53    
Precipitation  
Precipitation 0.00 in 0.14 in 1.11 in (1998)
Month to date precipitation 1.22  
Year to date precipitation 27.06  
Sea Level Pressure  
Sea Level Pressure 30.19 in    
Wind  
Wind Speed 3 mph (East)    
Max Wind Speed 8 mph    
Max Gust Speed -    
Visibility 10 miles    
Events      
T = Trace of Precipitation, MM = Missing Value Source: NWS Daily Summary

Daily Weather History Graph

Daily Weather History Graph

Search for Another Location

Airport or City:

Trip Planner

Search our weather history database for the weather conditions in past years. The results will help you decide how hot, cold, wet, or windy it might be!

Date:

Astronomy

Aug. 09, 2014 Rise Set
Actual Time 6:14 AM EDT 8:22 PM EDT
Civil Twilight 5:43 AM EDT 8:53 PM EDT
Nautical Twilight 5:05 AM EDT 9:31 PM EDT
Astronomical Twilight 4:24 AM EDT 10:12 PM EDT
Moon 7:22 PM EDT (8/9) 4:52 AM EDT (8/9)
Length of Visible Light 15h 09m
Length of Day
14h 08m
Waxing Gibbous, 98% of the Moon is Illuminated
Aug 9
Waxing Gibbous
Aug 10
Full
Aug 17
Last Quarter
Aug 25
New
Sep 2
First Quarter

Hourly Weather History & Observations

Time (EDT) Temp. Dew Point Humidity Pressure Visibility Wind Dir Wind Speed Gust Speed Precip Events Conditions
12:15 AM 55.4 °F 55.4 °F 100% 30.18 in 10.0 mi ENE 3.5 mph - N/A   Clear
12:35 AM 55.4 °F 55.4 °F 100% 30.18 in 10.0 mi East 3.5 mph - N/A   Clear
12:55 AM 55.4 °F 55.4 °F 100% 30.18 in 10.0 mi ENE 3.5 mph - N/A   Clear
1:35 AM 53.6 °F 53.6 °F 100% 30.18 in 10.0 mi Calm Calm - N/A   Clear
1:55 AM 53.6 °F 53.6 °F 100% 30.18 in 10.0 mi East 3.5 mph - N/A   Clear
2:15 AM 55.4 °F 55.4 °F 100% 30.18 in 10.0 mi East 3.5 mph - N/A   Clear
2:35 AM 53.6 °F 53.6 °F 100% 30.18 in 10.0 mi Calm Calm - N/A   Clear
2:55 AM 55.4 °F 55.4 °F 100% 30.18 in 10.0 mi Calm Calm - N/A   Clear
3:15 AM 55.4 °F 55.4 °F 100% 30.18 in 10.0 mi Calm Calm - N/A   Clear
3:35 AM 55.4 °F 55.4 °F 100% 30.18 in 10.0 mi Calm Calm - N/A   Clear
3:55 AM 55.4 °F 55.4 °F 100% 30.18 in 10.0 mi Calm Calm - N/A   Clear
4:15 AM 53.6 °F 53.6 °F 100% 30.19 in 10.0 mi Calm Calm - N/A   Clear
4:35 AM 55.4 °F 55.4 °F 100% 30.19 in 10.0 mi Calm Calm - N/A   Clear
4:55 AM 55.4 °F 55.4 °F 100% 30.19 in 10.0 mi Calm Calm - N/A   Clear
5:15 AM 55.4 °F 55.4 °F 100% 30.19 in 10.0 mi Calm Calm - N/A   Clear
5:35 AM 55.4 °F 55.4 °F 100% 30.19 in 10.0 mi Calm Calm - N/A   Clear
5:55 AM 53.6 °F 53.6 °F 100% 30.20 in 10.0 mi Calm Calm - N/A   Clear
6:15 AM 53.6 °F 53.6 °F 100% 30.20 in 10.0 mi Calm Calm - N/A   Clear
6:35 AM 53.6 °F 53.6 °F 100% 30.20 in 10.0 mi Calm Calm - N/A   Clear
6:55 AM 53.6 °F 53.6 °F 100% 30.21 in 10.0 mi Calm Calm - N/A   Clear
7:15 AM 53.6 °F 53.6 °F 100% 30.20 in 7.0 mi Calm Calm - N/A   Clear
7:35 AM 55.4 °F 55.4 °F 100% 30.21 in 10.0 mi Calm Calm - N/A   Clear
7:55 AM 55.4 °F 55.4 °F 100% 30.21 in 10.0 mi Calm Calm - N/A   Clear
8:15 AM 59.0 °F 59.0 °F 100% 30.21 in 10.0 mi Calm Calm - N/A   Clear
8:35 AM 59.0 °F 59.0 °F 100% 30.20 in 10.0 mi Calm Calm - N/A   Clear
8:55 AM 60.8 °F 60.8 °F 100% 30.21 in 10.0 mi Calm Calm - N/A   Clear
9:15 AM 60.8 °F 60.8 °F 100% 30.21 in 10.0 mi Calm Calm - N/A   Clear
9:35 AM 62.6 °F 60.8 °F 94% 30.20 in 10.0 mi East 3.5 mph - N/A   Clear
9:55 AM 64.4 °F 62.6 °F 94% 30.20 in 10.0 mi East 4.6 mph - N/A   Clear
10:15 AM 62.6 °F 60.8 °F 94% 30.20 in 10.0 mi ENE 5.8 mph - N/A   Clear
10:35 AM 64.4 °F 60.8 °F 88% 30.21 in 10.0 mi East 5.8 mph - N/A   Clear
10:55 AM 66.2 °F 60.8 °F 83% 30.21 in 10.0 mi East 3.5 mph - N/A   Clear
11:15 AM 66.2 °F 57.2 °F 73% 30.22 in 10.0 mi East 3.5 mph - N/A   Clear
11:35 AM 68.0 °F 59.0 °F 73% 30.22 in 10.0 mi ENE 4.6 mph - N/A   Clear
11:55 AM 68.0 °F 57.2 °F 68% 30.22 in 10.0 mi NE 6.9 mph - N/A   Scattered Clouds
12:15 PM 68.0 °F 57.2 °F 68% 30.21 in 10.0 mi East 8.1 mph - N/A   Scattered Clouds
12:35 PM 69.8 °F 57.2 °F 64% 30.21 in 10.0 mi ESE 4.6 mph - N/A   Scattered Clouds
12:55 PM 69.8 °F 55.4 °F 60% 30.21 in 10.0 mi East 6.9 mph - N/A   Scattered Clouds
1:15 PM 69.8 °F 55.4 °F 60% 30.21 in 10.0 mi East 3.5 mph - N/A   Scattered Clouds
1:35 PM 71.6 °F 57.2 °F 60% 30.20 in 10.0 mi East 5.8 mph - N/A   Scattered Clouds
1:55 PM 69.8 °F 55.4 °F 60% 30.20 in 10.0 mi ESE 5.8 mph - N/A   Scattered Clouds
2:15 PM 69.8 °F 53.6 °F 56% 30.19 in 10.0 mi Calm Calm - N/A   Clear
2:35 PM 71.6 °F 55.4 °F 57% 30.19 in 10.0 mi East 4.6 mph - N/A   Clear
2:55 PM 71.6 °F 55.4 °F 57% 30.19 in 10.0 mi East 4.6 mph - N/A   Scattered Clouds
3:15 PM 71.6 °F 55.4 °F 57% 30.19 in 10.0 mi ENE 3.5 mph - N/A   Clear
3:35 PM 71.6 °F 55.4 °F 57% 30.19 in 10.0 mi SSE 3.5 mph - N/A   Scattered Clouds
3:55 PM 73.4 °F 55.4 °F 53% 30.18 in 10.0 mi East 5.8 mph - N/A   Mostly Cloudy
4:15 PM 71.6 °F 55.4 °F 57% 30.18 in 10.0 mi ESE 3.5 mph - N/A   Scattered Clouds
4:35 PM 71.6 °F 55.4 °F 57% 30.18 in 10.0 mi Calm Calm - N/A   Scattered Clouds
4:55 PM 73.4 °F 55.4 °F 53% 30.18 in 10.0 mi East 3.5 mph - N/A   Scattered Clouds
5:15 PM 71.6 °F 55.4 °F 57% 30.18 in 10.0 mi NNE 3.5 mph - N/A   Mostly Cloudy
5:35 PM 71.6 °F 57.2 °F 60% 30.18 in 10.0 mi ENE 5.8 mph - N/A   Scattered Clouds
5:55 PM 71.6 °F 55.4 °F 57% 30.18 in 10.0 mi ENE 4.6 mph - N/A   Clear
6:15 PM 71.6 °F 53.6 °F 53% 30.18 in 10.0 mi East 4.6 mph - N/A   Clear
6:35 PM 71.6 °F 55.4 °F 57% 30.18 in 10.0 mi ENE 4.6 mph - N/A   Clear
6:55 PM 69.8 °F 55.4 °F 60% 30.18 in 10.0 mi ENE 3.5 mph - N/A   Clear
7:15 PM 69.8 °F 57.2 °F 64% 30.17 in 10.0 mi East 3.5 mph - N/A   Clear
7:35 PM 68.0 °F 55.4 °F 64% 30.17 in 10.0 mi Calm Calm - N/A   Clear
7:55 PM 66.2 °F 59.0 °F 78% 30.17 in 10.0 mi NE 5.8 mph - N/A   Clear
8:15 PM 64.4 °F 59.0 °F 83% 30.17 in 10.0 mi ENE 4.6 mph - N/A   Clear
8:35 PM 62.6 °F 60.8 °F 94% 30.18 in 10.0 mi ENE 4.6 mph - N/A   Clear
8:55 PM 62.6 °F 59.0 °F 88% 30.18 in 10.0 mi East 5.8 mph - N/A   Clear
9:15 PM 62.6 °F 59.0 °F 88% 30.18 in 10.0 mi ENE 6.9 mph - N/A   Clear
9:35 PM 60.8 °F 59.0 °F 94% 30.18 in 10.0 mi East 5.8 mph - N/A   Clear
9:55 PM 60.8 °F 59.0 °F 94% 30.19 in 10.0 mi East 5.8 mph - N/A   Clear
10:15 PM 60.8 °F 59.0 °F 94% 30.19 in 10.0 mi ENE 5.8 mph - N/A   Clear
10:35 PM 60.8 °F 60.8 °F 100% 30.19 in 10.0 mi ENE 6.9 mph - N/A   Clear
10:55 PM 59.0 °F 59.0 °F 100% 30.19 in 10.0 mi ENE 5.8 mph - N/A   Clear
11:15 PM 59.0 °F 59.0 °F 100% 30.19 in 10.0 mi ENE 5.8 mph - N/A   Clear